Theta_e
328 330 328 326 328 327 328 328 326 327 326 329 327 326 328 331 332 334 334 334 333 334 334 334 334 334 335 333 331 329 328 328 322 319 316 321 319 317 313 324 326 326 323 323 325 326 326 325 325
328 330 328 325 327 330 331 325 327 326 329 330 331 330 330 332 333 333 334 334 333 334 333 335 334 335 334 332 330 330 330 329 326 318 320 321 317 316 325 322 323 323 320 323 326 322 325 323 324
328 330 327 320 321 330 332 326 326 327 331 329 330 333 333 332 332 333 333 333 332 334 333 334 334 334 333 332 331 331 330 330 328 320 327 324 323 315 314 319 320 320 321 323 321 323 325 324 324
327 329 326 323 323 320 323 325 327 328 329 330 331 331 333 333 332 332 333 333 332 334 334 333 334 334 333 331 330 331 331 332 329 322 331 328 324 317 314 317 323 320 322 321 321 324 324 318 320
327 327 325 327 327 325 321 321 328 328 327 329 329 331 332 332 331 332 333 333 332 332 333 333 333 334 332 331 329 329 329 330 328 324 329 331 327 322 316 316 317 316 317 314 315 315 316 317 321
327 324 327 329 328 325 321 322 323 326 328 327 329 331 332 333 331 331 333 334 334 335 333 333 333 333 332 331 330 330 329 329 325 325 327 330 329 324 325 318 318 313 310 310 310 311 313 315 316
325 322 325 325 328 324 322 324 324 325 327 328 330 329 331 332 329 331 333 334 334 334 334 333 332 332 332 331 327 328 328 330 327 324 328 325 328 326 326 324 320 313 311 310 310 310 311 312 312
326 322 326 325 327 325 322 324 324 326 326 329 329 326 328 332 330 329 331 333 333 333 333 333 332 332 332 332 327 324 326 330 329 327 323 323 325 328 327 324 321 315 311 310 310 310 310 311 312
324 319 324 326 325 323 323 322 323 324 327 329 329 329 328 329 330 329 330 331 331 331 330 331 332 332 331 331 329 325 322 326 329 328 322 318 323 325 327 324 322 317 313 311 311 310 310 310 311
321 319 320 320 321 322 323 323 324 322 322 324 326 326 327 327 328 328 329 330 329 329 329 330 330 331 333 332 332 327 324 322 324 327 326 321 316 319 322 324 322 320 314 312 311 311 311 310 310
321 321 318 320 322 324 324 323 324 323 322 322 324 324 324 325 325 326 327 328 329 329 330 330 331 332 332 332 332 331 327 324 323 323 324 325 321 316 317 318 320 320 319 314 312 311 311 311 311
324 322 322 323 323 324 323 324 324 323 323 324 324 324 324 324 324 324 323 324 325 328 329 329 330 331 332 333 333 331 332 330 326 324 324 324 324 321 316 314 315 316 318 317 314 312 312 312 311
321 321 322 323 323 322 322 322 322 323 324 324 324 324 324 323 323 322 322 322 323 323 325 326 329 330 330 332 332 332 331 331 330 328 325 325 325 324 322 318 315 314 316 316 316 314 313 312 312
320 320 320 321 321 322 321 320 321 322 322 322 323 322 322 321 320 320 320 320 320 321 323 324 324 326 329 328 330 331 332 332 331 330 328 327 326 326 324 322 319 316 314 315 316 316 315 314 313
320 321 318 319 321 320 320 319 318 320 321 320 320 320 320 319 319 318 319 321 321 322 321 321 321 323 325 327 327 328 329 332 332 332 331 329 329 327 326 324 322 318 316 314 314 315 316 316 315
320 317 319 316 318 320 320 316 317 318 319 319 319 319 318 318 317 316 317 319 319 319 319 321 322 321 322 324 324 325 325 327 330 331 331 331 330 329 327 326 325 323 319 316 315 314 314 315 315
318 318 318 317 317 318 318 318 317 318 318 318 318 318 318 318 317 317 316 317 318 319 320 320 321 322 322 322 321 321 323 325 326 328 329 330 331 331 329 328 328 327 325 321 318 314 314 315 315
317 318 317 318 316 316 317 316 315 316 316 318 318 319 318 316 314 316 316 316 315 316 316 318 320 321 321 321 321 322 321 320 323 324 325 326 329 331 332 331 328 328 328 326 322 319 316 315 316
313 314 316 315 315 317 315 315 314 316 316 317 317 317 316 315 316 315 314 314 315 315 315 316 316 317 319 319 319 320 320 322 322 321 322 324 327 329 331 331 330 329 329 328 327 323 321 319 317
315 315 314 315 315 317 316 317 315 315 315 316 316 315 315 316 315 314 314 314 315 315 316 316 316 317 317 316 317 319 320 320 322 322 320 321 322 324 328 330 331 331 330 328 328 327 324 322 321
316 317 316 316 315 315 315 316 313 311 314 315 316 315 315 314 312 311 312 313 315 316 316 316 317 316 316 317 318 318 319 321 321 321 321 320 321 323 323 326 329 330 330 330 329 328 328 325 324
318 314 315 317 317 318 313 316 314 313 312 312 314 314 313 312 311 310 311 312 314 315 316 316 316 317 317 317 317 316 317 319 320 322 323 323 323 323 324 326 327 329 329 330 329 329 328 328 327
317 314 315 314 316 317 317 318 312 310 313 312 313 313 312 311 309 310 310 311 312 313 314 315 316 317 317 317 317 317 318 320 322 323 325 325 325 325 326 327 327 328 329 329 329 328 328 327 328
311 314 312 316 317 318 314 315 312 311 312 311 312 311 311 310 309 309 309 310 311 312 312 313 313 316 317 318 319 320 326 325 325 325 326 326 327 327 327 327 328 328 328 328 328 328 328 328 327
314 315 315 318 317 312 309 314 312 309 309 310 310 310 310 308 308 308 309 309 310 310 311 312 312 312 313 314 315 317 319 322 324 325 325 325 326 327 326 326 327 327 327 326 327 328 328 328 327
315 315 311 310 311 309 308 315 311 308 310 312 311 310 308 307 307 307 307 307 308 308 309 310 310 310 310 311 312 312 312 313 315 318 322 324 325 325 325 326 325 326 326 325 326 327 326 326 326
313 316 310 311 299 307 308 307 305 306 307 309 308 309 307 305 305 304 305 305 306 306 306 307 307 307 308 309 309 310 310 310 311 312 312 312 317 319 324 326 324 325 325 325 324 324 324 325 325
311 310 314 313 315 314 310 308 308 306 304 304 306 308 305 304 302 302 303 304 304 305 304 304 303 304 303 304 306 307 308 308 308 308 308 310 310 312 313 315 320 323 324 323 323 324 323 324 324
311 312 310 311 308 307 305 307 304 306 304 304 306 307 304 302 302 302 301 301 301 300 301 302 304 306 306 305 303 302 303 304 304 304 305 304 306 308 308 311 313 313 317 323 323 322 323 324 323
311 311 310 310 308 307 307 307 304 304 304 305 306 304 302 301 299 299 300 300 299 299 300 300 300 299 299 300 304 307 307 307 305 304 302 303 303 303 303 305 308 309 312 312 317 323 326 323 325
Wind_Speed
15 10 7 1 4 4 2 1 1 2 2 2 3 3 4 4 2 1 1 11 12 13 12 11 10 9 9 5 3 2 2 2 2 2 3 8 7 6 7 12 12 13 11 11 12 11 13 14 12
15 10 3 3 4 3 1 3 2 1 3 4 3 3 4 2 4 3 9 6 11 12 10 10 8 9 9 6 2 1 2 3 4 2 4 6 4 4 11 8 11 10 10 10 10 12 13 14 11
12 10 4 4 3 3 3 2 2 2 2 4 2 6 3 2 4 6 2 7 11 11 9 8 7 9 8 5 2 1 3 3 3 2 5 5 3 4 9 9 11 9 11 10 10 12 11 10 9
11 4 6 4 4 0 2 1 1 2 3 4 3 4 3 4 3 5 4 8 10 10 8 8 7 8 6 4 4 4 3 4 4 1 5 5 4 3 6 8 11 9 9 9 10 11 8 9 13
7 4 4 4 2 1 2 1 2 2 2 3 3 1 3 4 5 4 4 8 7 7 8 7 7 7 6 6 6 7 6 6 6 3 6 8 4 4 5 7 8 9 9 8 7 7 7 9 11
4 3 4 2 1 2 2 3 1 1 2 3 3 2 2 2 3 4 7 8 6 5 7 7 8 8 8 8 8 8 8 7 7 6 9 9 6 6 6 6 6 5 4 4 6 6 7 6 8
5 3 4 4 2 2 2 3 3 1 3 4 3 2 3 4 4 4 7 7 5 5 6 7 9 10 10 9 9 8 8 8 7 8 10 11 11 8 7 6 6 6 6 6 7 6 6 6 6
4 5 3 0 2 1 3 1 3 4 3 3 3 3 3 6 2 3 4 5 5 6 6 7 9 11 12 12 11 10 10 10 10 8 13 13 14 12 11 8 7 9 8 7 6 6 6 6 6
3 4 2 5 5 2 4 2 3 3 3 3 4 4 4 4 2 0 2 4 5 6 6 7 8 9 12 13 13 13 12 12 11 11 9 12 15 14 13 12 13 12 11 10 9 9 9 8 8
5 3 6 2 4 3 2 4 3 2 3 3 4 5 5 5 5 5 6 6 8 8 8 9 10 10 11 12 14 16 15 15 14 13 12 12 13 17 17 16 16 15 13 12 12 12 11 10 10
2 4 4 3 3 3 2 2 2 2 2 3 2 3 6 6 6 8 10 12 12 13 14 13 14 14 15 15 14 17 18 19 18 16 14 14 14 15 20 19 18 17 15 15 16 16 14 13 13
4 3 4 3 5 2 1 1 1 4 1 3 1 4 9 5 9 11 12 13 15 18 18 19 19 20 20 20 19 19 19 21 22 20 19 18 17 17 18 21 21 20 19 18 19 18 17 17 16
4 4 3 3 3 3 5 7 4 6 8 9 10 9 6 10 11 13 13 15 17 20 19 20 23 24 24 25 24 23 23 23 22 24 23 23 21 20 20 20 22 23 23 22 20 20 21 20 19
4 5 2 2 3 5 4 5 1 3 2 4 6 9 11 11 13 15 17 19 19 20 21 20 23 24 26 27 28 28 27 27 26 24 25 26 25 24 22 23 23 24 25 25 24 23 23 23 23
3 2 1 5 5 5 1 6 5 7 9 5 3 5 9 12 16 20 20 22 20 20 20 21 24 25 27 27 28 30 30 30 31 28 27 26 27 28 26 25 25 24 24 25 27 28 27 28 27
3 4 3 3 5 5 7 8 5 5 6 4 9 14 21 22 23 25 25 26 25 29 29 25 25 25 27 28 29 30 31 32 34 32 29 29 28 28 30 30 29 26 25 26 28 29 31 31 31
1 3 5 4 7 3 5 4 4 6 6 18 20 20 20 25 25 24 27 25 25 25 28 30 28 27 28 28 30 32 33 34 34 35 33 30 30 30 30 32 31 30 29 29 29 31 31 33 33
6 4 1 4 3 4 4 7 14 22 16 18 18 18 24 29 31 26 23 22 23 21 21 24 28 30 31 33 34 35 35 37 36 36 35 34 33 33 33 33 33 33 32 33 33 33 33 34 36
6 3 5 2 4 2 6 6 9 21 13 17 23 26 29 31 21 23 20 20 21 21 20 20 25 26 26 29 34 38 40 39 38 37 35 36 37 34 34 35 36 36 36 35 35 36 36 35 36
4 5 4 4 5 0 7 12 7 14 17 23 26 28 24 20 20 17 19 17 17 19 21 22 22 22 22 26 28 31 36 36 36 36 34 34 34 33 35 35 38 39 38 37 39 39 39 39 39
4 6 5 5 3 3 6 13 6 3 12 14 13 16 16 16 11 11 12 15 16 16 16 19 22 23 22 23 22 24 27 32 34 36 35 32 31 32 33 34 36 39 40 40 40 40 41 42 43
8 6 5 3 2 6 2 6 3 4 6 7 26 13 14 8 7 12 14 17 18 16 15 14 14 16 17 18 19 21 24 28 29 31 33 33 32 33 34 34 34 37 38 40 41 41 40 40 43
5 6 7 5 3 4 9 6 5 5 4 8 13 12 2 7 8 11 15 17 19 19 20 17 11 7 8 12 13 11 14 17 21 24 28 29 30 31 33 34 33 34 37 37 39 42 43 42 43
8 6 4 2 3 7 9 8 4 5 10 5 14 8 9 8 7 9 11 13 16 17 18 21 22 20 13 7 5 6 9 14 20 20 24 26 28 28 28 28 31 34 35 35 35 36 41 45 44
6 8 2 4 5 6 2 8 9 3 6 8 13 6 11 8 7 8 9 11 13 15 17 18 19 20 19 18 15 11 7 7 12 15 18 19 24 25 25 25 29 30 31 32 31 32 35 41 45
13 11 5 7 5 4 2 8 5 11 13 6 4 15 12 9 8 9 10 10 11 12 13 14 16 17 18 17 15 13 11 10 8 10 13 15 18 23 24 27 27 33 33 32 31 33 36 38 43
5 14 7 4 3 2 5 6 7 8 10 13 11 16 13 10 8 7 7 8 9 10 12 13 13 14 15 16 16 16 15 15 13 12 12 13 15 19 20 22 26 31 34 34 32 34 39 38 41
7 8 4 3 6 7 5 6 8 2 4 6 11 17 14 10 7 7 6 6 6 7 9 11 13 13 15 14 13 13 15 15 15 17 18 17 17 18 20 22 24 26 31 34 35 36 37 40 41
6 8 4 5 5 5 2 6 7 14 9 12 15 16 14 10 7 4 4 4 6 7 8 8 9 10 11 12 12 11 12 13 16 17 20 22 22 20 20 23 25 27 29 28 36 37 39 42 42
16 10 10 7 4 4 3 10 2 6 10 22 19 19 15 10 7 4 2 2 3 7 9 10 11 14 16 17 16 17 18 17 17 21 23 21 25 26 26 24 25 26 28 29 30 32 38 41 44
Wind_Direction
346 347 346 56 61 67 52 16 255 29 67 29 102 99 101 83 117 269 206 158 163 167 163 163 164 167 168 167 158 142 100 54 57 144 138 150 138 125 120 133 130 117 114 115 122 115 108 104 99
346 356 7 80 82 71 320 276 91 307 132 75 97 70 72 79 54 81 138 157 159 168 168 164 169 170 177 184 179 10 35 32 32 124 143 150 137 126 129 147 128 120 117 117 116 115 98 104 114
347 358 35 79 98 132 143 230 132 87 131 12 75 60 78 46 51 148 121 165 161 166 176 172 175 177 185 201 214 303 332 337 4 136 181 164 149 140 159 152 132 144 129 130 133 114 115 116 120
355 19 60 71 83 117 92 8 37 68 64 26 57 60 75 47 72 131 112 166 166 168 182 186 188 188 199 222 261 283 299 300 314 249 199 193 183 152 166 159 146 140 140 136 137 140 132 124 112
6 53 55 77 17 356 322 25 91 40 66 29 23 109 75 88 70 113 137 166 170 178 190 195 196 205 216 241 263 282 287 281 286 247 204 225 212 220 174 173 171 157 154 155 152 155 128 125 119
47 63 66 109 0 345 350 23 80 40 58 56 38 79 68 18 72 105 137 164 183 198 201 209 211 221 232 251 259 276 276 276 270 241 200 225 227 210 181 180 192 187 164 163 148 159 162 155 150
83 67 140 147 143 52 325 5 56 80 72 46 71 41 49 62 83 112 141 165 193 204 214 230 231 237 249 255 261 261 269 270 266 253 222 222 225 226 214 202 226 231 201 197 172 179 186 191 188
77 89 101 274 154 81 339 75 80 60 72 78 49 37 9 15 70 114 148 180 207 227 239 245 241 246 258 265 263 265 261 262 269 268 249 248 214 218 228 239 240 235 223 218 205 200 206 217 218
52 66 135 182 158 175 23 76 49 69 78 79 71 56 0 10 24 324 221 232 243 256 258 253 251 263 264 263 263 263 265 262 262 271 264 245 225 229 235 245 247 240 229 223 221 217 221 228 230
67 96 201 186 169 137 80 47 34 96 58 61 81 65 55 37 17 345 316 298 296 295 283 274 268 270 272 271 270 265 263 264 266 266 266 264 250 245 241 243 253 237 233 225 229 231 232 235 238
120 168 174 174 131 120 90 41 22 57 41 82 97 49 17 0 354 345 334 326 313 298 285 287 284 278 276 279 273 270 266 265 263 263 266 266 265 253 244 248 251 246 243 236 231 236 239 242 245
129 205 166 153 162 146 286 227 232 205 196 5 219 318 329 338 336 333 323 313 300 294 291 290 285 282 279 276 274 271 270 271 266 262 261 262 264 265 257 251 253 254 252 251 243 241 244 246 248
143 192 187 220 237 262 261 248 239 225 263 268 280 291 289 316 310 303 296 293 292 284 287 289 287 285 282 276 275 272 270 271 274 272 263 259 259 264 265 262 258 257 254 253 252 248 248 249 252
150 167 184 256 265 270 254 264 224 119 263 251 252 272 283 300 307 301 298 292 285 282 275 282 282 282 281 280 278 275 273 271 271 269 270 268 264 261 263 264 263 260 259 258 257 254 253 253 255
118 140 58 210 220 237 244 295 225 237 264 274 274 292 301 311 308 301 296 291 292 289 282 276 280 278 276 277 278 276 275 273 269 269 270 268 270 266 262 263 263 264 263 261 259 257 255 254 255
117 78 115 267 184 238 154 261 270 257 259 303 311 308 310 309 305 298 296 295 286 282 280 278 283 277 272 275 278 277 277 277 274 272 269 268 269 270 268 263 263 265 263 263 259 259 258 259 258
339 229 185 301 213 169 171 265 222 156 306 306 302 299 306 304 299 300 304 297 294 288 277 273 276 275 275 277 278 276 274 272 272 272 273 270 267 266 268 270 266 265 264 263 263 258 258 261 262
195 208 231 195 181 175 217 245 275 283 289 291 290 293 294 296 300 313 316 310 303 296 288 279 273 271 271 273 272 268 269 268 268 271 272 274 270 266 266 268 271 267 262 264 262 261 262 262 266
151 152 208 273 256 297 242 249 259 287 281 283 286 286 290 297 310 321 323 313 303 295 289 282 272 270 272 274 273 271 268 270 273 273 276 274 273 271 269 268 269 268 265 263 266 266 264 266 265
162 161 209 284 284 194 297 290 249 260 267 266 276 280 286 302 319 330 331 329 319 303 291 280 270 261 264 275 274 277 279 273 272 274 273 275 278 279 273 269 267 268 267 267 264 262 262 263 265
194 204 199 231 349 297 316 299 280 291 247 263 258 279 290 317 347 5 7 1 352 340 314 297 280 268 264 273 273 279 279 273 271 270 272 276 280 282 282 278 273 269 269 268 268 268 265 265 267
218 181 160 176 119 265 98 286 236 240 258 260 277 278 304 352 38 31 34 35 28 14 353 331 302 275 264 262 266 277 283 284 284 283 282 281 282 284 285 285 280 278 274 270 269 270 270 266 263
211 156 179 162 173 262 241 281 278 121 224 247 258 285 41 87 55 46 42 41 43 41 38 30 10 318 286 269 268 277 294 302 304 297 294 293 293 294 294 292 289 283 280 280 275 272 270 271 268
143 92 51 110 141 248 209 196 227 188 211 247 249 160 119 104 77 56 51 49 49 48 49 48 43 43 36 10 315 288 303 304 301 306 305 304 302 301 300 301 298 294 286 284 284 281 275 272 271
163 144 207 193 204 231 235 192 239 205 185 208 255 208 131 114 92 68 58 51 47 46 46 45 45 45 44 43 41 29 359 306 300 297 295 299 299 299 302 302 297 293 293 290 288 285 280 274 272
195 190 168 193 194 218 127 225 246 208 249 229 163 135 136 123 99 77 60 48 46 45 47 44 42 41 40 38 34 32 24 10 342 312 298 293 298 300 299 299 295 292 289 289 287 286 282 277 274
177 212 185 85 60 65 221 281 274 217 237 213 169 157 150 133 121 97 77 57 46 40 37 35 39 42 40 34 24 13 7 359 353 341 329 315 299 288 286 295 296 292 289 289 291 285 281 280 279
173 150 171 199 209 230 236 248 220 253 106 140 174 167 157 147 131 101 78 61 44 32 27 28 28 30 28 28 24 7 352 352 349 342 335 326 319 309 300 290 281 283 290 289 287 284 282 282 281
172 197 201 159 180 185 241 252 205 219 200 178 187 171 162 157 143 114 74 52 44 38 31 19 2 346 346 3 9 13 3 348 341 338 334 334 329 326 318 306 295 286 279 284 292 286 284 282 281
220 217 192 195 217 232 228 253 173 208 193 185 171 166 167 167 153 138 117 23 9 15 11 7 5 6 6 3 346 323 322 323 324 328 329 324 323 323 323 318 315 305 294 284 275 288 285 285 273